Terre Haute, IN

11:46 AM EST on January 16, 2017 (GMT -0500)
Terre Haute International-Hulman

Weather History for KHUF - July, 2013

Change the Weather History Date:

Monday, July 22, 2013

  Actual Average Record
Temperature  
Mean Temperature 77 °F 75 °F  
Max Temperature 84 °F 85 °F 98 °F (2012)
Min Temperature 70 °F 64 °F 52 °F (1966)
Degree Days  
Heating Degree Days 0 0  
Month to date heating degree days 0 0  
Since 1 June heating degree days 7 13  
Since 1 July heating degree days 0 0  
Cooling Degree Days 12 10  
Month to date cooling degree days 238 227  
Year to date cooling degree days 581 548  
Since 1 June cooling degree days 467 462  
Growing Degree Days 26 (Base 50)    
Moisture  
Dew Point 69 °F    
Average Humidity 79    
Maximum Humidity 93    
Minimum Humidity 65    
Precipitation  
Precipitation 0.23 in 0.19 in 1.72 in (1990)
Month to date precipitation 1.85 3.57  
Year to date precipitation 31.67 26.45  
Sea Level Pressure  
Sea Level Pressure 29.83 in    
Wind  
Wind Speed 4 mph (SW)    
Max Wind Speed 13 mph    
Max Gust Speed 18 mph    
Visibility 8 miles    
Events Rain    
T = Trace of Precipitation, MM = Missing Value Source: NWS Daily Summary

Daily Weather History Graph

Daily Weather History Graph

Search for Another Location

Airport or City:

Trip Planner

Search our weather history database for the weather conditions in past years. The results will help you decide how hot, cold, wet, or windy it might be!

Date:

Astronomy

Jul. 22, 2013 Rise Set
Actual Time 6:40 AM EDT 9:10 PM EDT
Civil Twilight 6:09 AM EDT 9:41 PM EDT
Nautical Twilight 5:31 AM EDT 10:19 PM EDT
Astronomical Twilight 4:48 AM EDT 11:02 PM EDT
Moon 8:56 PM EDT (7/22) 6:35 AM EDT (7/22)
Length of Visible Light 15h 31m
Length of Day
14h 30m
Full, 100% of the Moon is Illuminated
Jul 22
Full
Jul 22
Full
Jul 29
Last Quarter
Aug 6
New
Aug 14
First Quarter

Hourly Weather History & Observations

Time (EDT) Temp. Heat Index Dew Point Humidity Pressure Visibility Wind Dir Wind Speed Gust Speed Precip Events Conditions
12:53 AM 73.9 °F - 71.1 °F 91% 29.88 in 10.0 mi SSW 5.8 mph - 0.00 in   Mostly Cloudy
1:01 AM 73.4 °F - 71.6 °F 94% 29.90 in 10.0 mi SSW 9.2 mph - N/A   Mostly Cloudy
1:37 AM 73.4 °F - 69.8 °F 88% 29.88 in 10.0 mi SSE 10.4 mph - 0.00 in   Mostly Cloudy
1:53 AM 73.0 °F - 69.1 °F 87% 29.87 in 10.0 mi SSE 9.2 mph - 0.00 in   Mostly Cloudy
2:53 AM 71.1 °F - 68.0 °F 90% 29.84 in 10.0 mi SSE 4.6 mph - N/A   Overcast
3:16 AM 71.6 °F - 68.0 °F 88% 29.85 in 10.0 mi Calm Calm - N/A   Mostly Cloudy
3:53 AM 71.1 °F - 66.9 °F 87% 29.82 in 10.0 mi South 6.9 mph - N/A   Scattered Clouds
4:22 AM 71.6 °F - 68.0 °F 88% 29.84 in 10.0 mi South 5.8 mph - N/A   Mostly Cloudy
4:45 AM 71.6 °F - 68.0 °F 88% 29.84 in 10.0 mi SSW 4.6 mph - N/A   Overcast
4:53 AM 71.1 °F - 68.0 °F 90% 29.83 in 10.0 mi South 5.8 mph - N/A   Overcast
5:08 AM 71.6 °F - 68.0 °F 88% 29.84 in 8.0 mi South 3.5 mph - 0.00 in Rain Light Rain
5:53 AM 71.1 °F - 68.0 °F 90% 29.81 in 5.0 mi South 6.9 mph - 0.02 in Rain Light Rain
6:04 AM 71.6 °F - 68.0 °F 88% 29.82 in 4.0 mi SSE 5.8 mph - 0.02 in Rain Rain
6:29 AM 71.6 °F - 68.0 °F 88% 29.83 in 4.0 mi South 5.8 mph - 0.03 in Rain Light Rain
6:53 AM 71.1 °F - 68.0 °F 90% 29.82 in 4.0 mi SSE 4.6 mph - 0.09 in Rain Rain
7:06 AM 71.6 °F - 69.8 °F 94% 29.83 in 2.5 mi South 5.8 mph - 0.05 in Rain Rain
7:15 AM 71.6 °F - 69.8 °F 94% 29.82 in 2.5 mi South 4.6 mph - 0.08 in Rain Light Rain
7:27 AM 71.6 °F - 69.8 °F 94% 29.82 in 2.0 mi South 3.5 mph - 0.11 in Rain Rain
7:36 AM 71.6 °F - 69.8 °F 94% 29.82 in 3.0 mi SE 4.6 mph - 0.12 in Rain Light Rain
7:53 AM 71.1 °F - 69.1 °F 93% 29.81 in 4.0 mi South 3.5 mph - 0.12 in Rain Light Rain
8:07 AM 71.6 °F - 69.8 °F 94% 29.83 in 4.0 mi WSW 3.5 mph - 0.00 in Rain Light Rain
8:16 AM 71.6 °F - 69.8 °F 94% 29.83 in 4.0 mi West 3.5 mph - 0.00 in Rain Light Rain
8:53 AM 71.1 °F - 68.0 °F 90% 29.83 in 10.0 mi WSW 5.8 mph - 0.00 in   Mostly Cloudy
10:53 AM 73.0 °F - 68.0 °F 84% 29.83 in 10.0 mi WSW 6.9 mph - N/A   Overcast
11:44 AM 73.4 °F - 69.8 °F 88% 29.84 in 10.0 mi WSW 3.5 mph - N/A   Overcast
11:53 AM 73.9 °F - 69.1 °F 85% 29.83 in 10.0 mi SW 3.5 mph - N/A   Overcast
12:30 PM 75.2 °F - 68.0 °F 78% 29.84 in 10.0 mi WSW 3.5 mph - N/A   Overcast
12:35 PM 75.2 °F - 68.0 °F 78% 29.84 in 10.0 mi Variable 3.5 mph - N/A   Overcast
12:53 PM 77.0 °F - 68.0 °F 74% 29.83 in 10.0 mi Calm Calm - N/A   Overcast
1:10 PM 77.0 °F - 69.8 °F 78% 29.84 in 10.0 mi West 4.6 mph - N/A   Overcast
1:35 PM 78.8 °F - 68.0 °F 69% 29.84 in 10.0 mi WNW 4.6 mph - N/A   Overcast
1:53 PM 79.0 °F - 69.1 °F 72% 29.83 in 10.0 mi West 5.8 mph - N/A   Overcast
2:04 PM 78.8 °F - 69.8 °F 74% 29.84 in 10.0 mi WNW 5.8 mph - N/A   Overcast
2:18 PM 80.6 °F 83.9 °F 69.8 °F 70% 29.84 in 10.0 mi West 5.8 mph - N/A   Overcast
2:51 PM 78.8 °F - 69.8 °F 74% 29.83 in 10.0 mi NW 3.5 mph - N/A   Overcast
2:53 PM 78.1 °F - 70.0 °F 76% 29.82 in 10.0 mi NW 3.5 mph - N/A   Overcast
3:15 PM 80.6 °F 83.9 °F 69.8 °F 70% 29.82 in 10.0 mi NW 6.9 mph - N/A   Scattered Clouds
3:53 PM 82.0 °F 85.9 °F 70.0 °F 67% 29.80 in 10.0 mi NNW 8.1 mph - N/A   Scattered Clouds
4:53 PM 81.0 °F 84.1 °F 69.1 °F 67% 29.81 in 10.0 mi WNW 8.1 mph - N/A   Scattered Clouds
5:53 PM 82.9 °F 86.5 °F 69.1 °F 63% 29.81 in 10.0 mi NNW 8.1 mph - N/A   Partly Cloudy
6:53 PM 82.9 °F 86.5 °F 69.1 °F 63% 29.80 in 10.0 mi NNW 6.9 mph - N/A   Partly Cloudy
7:53 PM 81.0 °F 84.1 °F 69.1 °F 67% 29.80 in 10.0 mi NW 4.6 mph - N/A   Partly Cloudy
8:53 PM 79.0 °F - 69.1 °F 72% 29.80 in 10.0 mi Calm Calm - N/A   Partly Cloudy
9:53 PM 73.9 °F - 70.0 °F 87% 29.81 in 10.0 mi Calm Calm - N/A   Clear
10:53 PM 72.0 °F - 68.0 °F 87% 29.83 in 10.0 mi Calm Calm - N/A   Clear
11:53 PM 71.1 °F - 69.1 °F 93% 29.83 in 10.0 mi Calm Calm - N/A   Clear